Terminal Aerodrome Forecast
Issued by NWS Burlington, VT

Home | Current Version | Previous Version | Text Only | Print | Product List | Glossary On
Versions: 1 2 3 4 5 6 7 8 9 10 11 12
117
FTUS41 KBTV 301126
TAFBTV
TAF
KBTV 301126Z 3012/0112 14008KT P6SM BKN150 BKN200
     FM301800 15009KT P6SM OVC150
     FM010000 12005KT P6SM OVC130
     FM010300 12005KT P6SM OVC070=

USA.gov is the U.S. government's official web portal to all federal, state and local government web resources and services.